Zurück zum Katalog

STARLINK-36094

AktivKommunikationVLEO
NORAD 66851·PAYLOAD·🇺🇸 United States

Gestartet Dec 2, 2025 von Cape Canaveral Space Force Station

Loading…

Nächste Überflüge (nächste 24 Stunden)

TLE

AktuellSource: CelesTrak SupGP

Epoche: Sep 14, 2026, 22:49 UTC

1 66851C 25281D   26257.95118056 -.00022732  00000+0 -82316-3 0  2578
2 66851  43.0022 354.5383 0001482 271.2634  16.1790 15.27597097    17

Verfolge STARLINK-36094 in Echtzeit mit AllMySat

Download on the App Store